Preview of NWS' New Version of Forecast
This preview is not operational and should not be used for support decisions.

Regional Weather Roundup (RWR)

Issued by National Weather Service (NWS)

                            
000
ASPQ40 PGUM 210410
RWRPQ 
WEATHER ROUNDUP FOR THE MARIANAS AND MICRONESIA
NATIONAL WEATHER SERVICE TIYAN GU
200 PM CHST SUN APR 21 2019

GUZ001>004-210500-
MARIANA ISLANDS-
  
CITY           SKY/WX    TMP DP  RH WIND       PRES   REMARKS
GUAM AIRPORT   SUNNY     88  66  48 E15       29.84F HX  90           
ANDERSEN AFB   MOSUNNY   86  72  62 E15G21    29.85F HX  92           
ROTA AIRPORT   MOSUNNY   84  70  61 E15       29.84F                  
TINIAN AP      MOSUNNY   91  72  52 SE16      29.87F HX  98           
SAIPAN AP      MOSUNNY   88  72  58 E10G21    29.85F HX  94           

$$

PMZ161-210500-
REPUBLIC OF PALAU-
  
CITY           SKY/WX    TMP DP  RH WIND       PRES   REMARKS
KOROR AP       PTSUNNY   86  73  66 NE13G20   29.81F HX  93           
KOROR WSO      NOT AVBL                                               

$$

PMZ171>174-210500-
FEDERATED STATES OF MICRONESIA-
  
CITY           SKY/WX    TMP DP  RH WIND       PRES   REMARKS
YAP AIRPORT    MOSUNNY   90  77  66 VRB6      29.79F HX 102           
CHUUK AP       PTSUNNY   88  77  70 VRB6      29.73F HX 100           
POHNPEI AP     CLOUDY    88  77  70 E15       29.74S HX 100           
POHNPEI WSO    CLOUDY    86  75  70 NE6       29.76S HX  95           
KOSRAE AP      NOT AVBL                                               

$$

PMZ181-210500-
REPUBLIC OF THE MARSHALL ISLANDS-
  
CITY           SKY/WX    TMP DP  RH WIND       PRES   REMARKS
KWAJALEIN AP   SUNNY     86  75  70 E16       29.80S HX  95           
MAJURO AP      CLOUDY    88  77  70 NE18      29.80  HX 100           
MAJURO WSO     CLOUDY    86  77  74 E9        29.78S HX  97           

$$